Date,TemperatureHighF,TemperatureAvgF,TemperatureLowF,DewpointHighF,DewpointAvgF,DewpointLowF,HumidityHigh,HumidityAvg,HumidityLow,PressureMaxIn,PressureMinIn,WindSpeedMaxMPH,WindSpeedAvgMPH,GustSpeedMaxMPH,PrecipitationSumIn
2013-1-1,44.2,28.2,23.3,34.4,25.7,21.2,93,90,59,30.18,30.03,2,0,2,0.03
2013-1-2,41.0,34.2,27.7,37.8,32.6,26.2,100,94,82,30.50,30.07,5,0,5,0.06
2013-1-3,49.8,27.9,25.0,36.4,25.8,23.5,96,92,48,30.61,30.50,4,0,6,0.02
2013-1-4,61.3,30.4,26.7,43.4,27.8,24.9,95,91,49,30.55,30.30,6,0,6,0.00
2013-1-5,65.5,35.0,30.1,44.9,31.5,28.3,95,88,45,30.30,30.09,6,1,6,0.00
2013-1-6,57.4,35.6,32.0,42.9,31.8,29.7,95,86,55,30.22,30.06,7,1,7,0.00
2013-1-7,57.9,33.0,27.9,39.6,30.0,25.7,94,89,48,30.30,30.06,7,1,7,0.01
2013-1-8,48.2,35.8,30.7,40.6,33.4,28.5,100,91,69,30.34,30.24,6,0,6,0.01
2013-1-9,41.2,39.2,37.4,37.1,35.6,34.8,94,87,81,30.25,30.10,5,0,7,0.00
2013-1-10,44.7,36.6,29.6,37.9,33.3,27.6,94,88,70,30.10,29.81,3,0,6,0.00
2013-1-11,47.1,33.5,28.5,40.0,31.7,27.3,97,93,73,29.95,29.73,6,0,7,0.01
2013-1-12,38.9,35.2,31.3,35.1,32.8,29.5,95,91,83,30.04,29.94,7,0,9,0.00
2013-1-13,41.4,35.6,29.4,35.7,32.4,27.6,100,88,79,30.00,29.76,4,0,7,0.01
2013-1-14,40.1,32.8,28.1,35.3,30.7,26.6,95,92,82,29.83,29.72,6,0,8,0.01
2013-1-15,36.8,32.3,27.8,33.3,30.3,26.0,95,93,82,29.83,29.60,6,0,11,0.10
2013-1-16,42.4,38.8,32.9,32.4,19.0,9.1,95,48,30,29.60,29.41,11,2,25,0.00
2013-1-17,48.0,39.6,36.4,13.5,10.5,7.6,38,30,22,29.58,29.44,13,4,24,0.00
2013-1-18,47.8,33.1,23.4,20.8,15.1,8.8,74,50,26,29.62,29.53,6,0,9,0.00
2013-1-19,38.6,31.0,25.9,30.4,24.6,19.8,94,78,53,29.60,29.52,6,0,9,0.00
2013-1-20,35.4,33.1,31.7,34.4,31.8,30.2,96,95,94,29.58,29.43,2,0,4,1.13
2013-1-21,41.9,37.2,34.5,39.7,36.0,33.5,97,95,92,29.43,29.37,4,0,6,0.41
2013-1-22,49.5,37.5,29.5,41.7,34.8,27.7,97,91,62,29.71,29.42,7,0,10,0.00
2013-1-23,44.0,32.1,25.4,34.4,28.4,24.2,96,87,56,29.77,29.69,5,0,6,0.01
2013-1-24,52.2,35.7,28.2,33.8,29.4,25.9,95,80,40,29.72,29.49,6,0,8,0.00
2013-1-25,49.6,30.8,22.2,33.4,25.9,20.0,93,84,33,29.86,29.64,9,0,12,0.01
2013-1-26,45.2,34.6,26.6,32.7,29.0,24.1,93,81,53,29.99,29.81,6,0,8,0.00
2013-1-27,42.9,28.9,21.7,31.8,25.2,19.5,95,87,58,30.00,29.89,5,0,7,0.00
2013-1-28,40.1,34.9,31.8,35.7,31.7,28.8,93,88,83,30.26,29.86,7,1,9,0.06
2013-1-29,48.2,33.1,26.7,36.4,29.4,24.9,96,87,59,30.28,30.15,5,0,6,0.01
2013-1-30,53.7,33.8,26.2,40.2,29.6,24.5,100,86,51,30.20,30.03,7,0,10,0.00
2013-1-31,64.4,37.7,27.4,37.0,29.5,25.7,100,78,23,30.20,30.03,6,0,8,0.02
2013-2-1,49.7,34.0,27.5,39.5,31.7,26.3,97,92,59,30.05,29.55,9,1,12,0.07
2013-2-2,52.1,41.9,36.6,39.9,29.1,13.0,96,71,23,29.55,29.20,17,2,33,0.19
2013-2-3,51.6,45.2,30.4,18.9,11.0,4.6,59,26,18,30.06,29.49,14,4,29,0.00
2013-2-4,53.6,32.9,24.2,28.1,21.1,16.0,83,64,25,30.05,29.97,7,0,9,0.00
2013-2-5,41.0,31.8,24.4,35.7,27.2,21.4,93,83,68,30.04,29.55,5,0,6,0.11
2013-2-6,51.7,36.5,28.9,38.4,29.6,17.4,97,80,29,29.58,29.39,13,1,16,0.02
2013-2-7,51.1,36.7,27.3,33.8,21.8,6.6,93,64,19,29.80,29.54,11,1,21,0.01
2013-2-8,47.0,34.9,22.8,19.9,11.7,5.5,70,40,20,29.88,29.76,9,1,12,0.00
2013-2-9,46.4,36.8,30.6,13.4,7.3,1.1,48,30,19,29.94,29.87,10,1,18,0.00
2013-2-10,41.7,31.5,24.1,17.5,8.8,2.0,71,40,26,29.97,29.87,8,1,14,0.00
2013-2-11,32.3,29.6,26.6,29.0,24.3,17.8,92,81,68,29.88,29.51,4,0,7,0.07
2013-2-12,42.2,33.0,28.9,34.6,29.7,26.4,94,88,70,29.82,29.51,8,1,12,0.13
2013-2-13,55.8,33.4,24.1,37.5,19.5,0.2,100,69,12,30.01,29.81,9,1,18,0.02
2013-2-14,50.2,32.3,20.5,26.4,19.9,11.5,86,64,23,30.11,30.01,6,0,9,0.00
2013-2-15,52.1,32.9,25.0,28.0,24.0,19.8,92,73,31,30.09,29.95,9,0,12,0.00
2013-2-16,49.5,31.1,21.9,31.1,24.4,19.2,91,78,43,30.18,30.09,9,1,12,0.00
2013-2-17,42.2,32.7,27.9,36.9,29.5,24.8,93,88,75,30.16,30.07,7,0,11,0.04
2013-2-18,48.0,36.0,28.3,35.7,30.1,25.6,95,81,51,30.11,30.01,8,1,10,0.00
2013-2-19,50.0,31.4,23.0,32.8,25.6,20.8,95,81,47,30.10,29.87,6,0,8,0.00
2013-2-20,50.4,34.3,26.0,36.9,29.1,23.5,93,82,56,29.93,29.85,7,1,11,0.00
2013-2-21,39.2,34.3,30.7,35.1,32.3,29.2,100,92,81,29.93,29.78,4,0,7,0.72
2013-2-22,36.3,30.2,24.9,30.3,27.7,22.9,100,90,74,29.79,29.61,6,0,8,0.26
2013-2-23,40.9,29.4,22.4,30.3,25.0,20.2,94,85,59,29.68,29.52,5,0,7,0.02
2013-2-24,33.7,32.6,31.9,31.4,30.1,28.6,94,91,86,29.86,29.51,6,1,10,0.33
2013-2-25,36.9,32.9,31.7,35.2,31.4,30.2,96,94,91,30.19,29.86,6,1,9,1.28
2013-2-26,51.2,35.7,28.0,35.0,30.8,26.5,100,84,46,30.19,30.11,7,1,11,0.12
2013-2-27,48.7,34.5,26.4,34.3,28.8,24.7,100,82,44,30.27,30.15,8,0,10,0.00
2013-2-28,53.4,41.0,36.9,38.1,35.4,33.6,92,81,54,30.28,30.18,6,0,8,0.02
2013-3-1,56.2,37.7,28.1,38.9,31.9,26.3,95,82,46,30.19,30.00,7,0,9,0.00
2013-3-2,55.1,39.2,30.9,39.8,33.8,28.6,93,83,52,30.12,30.03,7,0,9,0.00
2013-3-3,58.3,40.4,27.2,40.8,33.8,25.5,96,79,49,30.11,29.98,7,1,10,0.02
2013-3-4,58.8,39.0,27.5,40.9,31.5,25.7,96,78,33,30.21,30.08,9,1,13,0.00
2013-3-5,51.4,37.5,28.3,36.5,30.5,25.9,94,78,44,30.22,30.10,8,0,11,0.00
2013-3-6,43.4,41.6,39.3,41.0,37.7,32.0,94,86,65,30.10,29.75,7,0,11,0.78
2013-3-7,48.2,44.2,41.6,46.8,42.6,-99.9,96,95,94,29.75,29.67,6,0,8,0.71
2013-3-8,49.0,45.6,44.0,47.8,44.5,42.7,97,96,95,29.70,29.62,4,0,6,0.44
2013-3-9,52.9,44.2,39.9,48.0,42.3,38.9,98,93,77,29.65,29.55,5,0,7,0.03
2013-3-10,61.4,48.0,40.4,47.1,42.5,38.3,96,83,46,29.59,29.43,7,1,10,0.00
2013-3-11,58.0,44.8,38.4,45.8,40.7,37.4,100,86,57,29.51,29.43,8,1,13,0.02
2013-3-12,53.9,44.1,38.8,44.8,41.2,37.1,100,90,66,29.51,29.39,11,1,14,0.50
2013-3-13,52.4,41.9,36.1,43.8,38.8,34.0,96,89,69,29.43,29.33,9,1,12,0.02
2013-3-14,51.1,42.4,32.8,35.6,15.6,2.6,94,38,20,29.51,29.31,18,6,37,0.00
2013-3-15,48.7,39.9,36.3,7.0,2.4,-1.5,25,21,14,29.96,29.51,14,4,27,0.00
2013-3-16,47.3,36.6,24.2,28.2,15.3,-0.8,63,43,20,30.10,29.96,10,2,13,0.00
2013-3-17,39.6,34.5,32.2,33.0,30.9,27.5,95,87,62,30.06,29.79,7,0,9,1.13
2013-3-18,38.5,34.5,32.5,36.7,33.0,31.2,96,94,91,29.80,29.28,5,1,8,1.70
2013-3-19,58.0,38.9,29.2,39.9,31.2,24.0,97,79,29,29.69,29.36,9,1,13,0.02
2013-3-20,49.2,41.1,33.0,39.9,35.9,30.6,93,82,64,29.82,29.66,9,1,13,0.00
2013-3-21,62.8,43.7,29.9,32.4,27.4,18.3,94,59,18,29.89,29.81,10,1,15,0.00
2013-3-22,59.9,40.9,29.3,37.4,30.0,23.1,92,69,30,29.89,29.81,9,1,13,0.00
2013-3-23,51.6,41.8,35.1,42.4,36.4,32.2,92,82,56,29.90,29.82,5,0,6,0.02
2013-3-24,45.8,43.2,40.8,44.2,41.7,39.5,95,94,92,29.83,29.69,6,0,7,1.46
2013-3-25,45.1,40.8,38.9,41.5,39.2,37.6,96,94,84,29.69,29.49,9,2,11,0.27
2013-3-26,42.0,38.0,34.6,37.6,34.4,30.8,96,87,70,29.68,29.53,10,3,12,0.08
2013-3-27,44.1,39.4,37.7,36.0,34.6,33.4,88,83,68,29.86,29.67,4,0,6,0.00
2013-3-28,43.4,38.5,35.9,38.9,35.7,34.0,94,90,78,29.91,29.84,6,0,9,0.45
2013-3-29,52.9,40.5,36.9,41.2,37.2,35.3,95,89,59,29.84,29.63,8,1,11,0.00
2013-3-30,44.7,41.0,37.7,42.8,39.3,35.9,99,93,92,29.69,29.41,7,0,9,0.70
2013-3-31,62.4,43.9,33.8,45.5,28.6,9.6,100,68,15,29.59,29.37,12,1,22,0.03
2013-4-1,49.1,43.1,38.6,38.7,34.8,16.7,83,73,32,29.69,29.58,7,1,11,0.00
2013-4-2,60.1,46.2,38.7,40.7,37.6,33.7,89,74,39,29.66,29.49,10,1,13,0.00
2013-4-3,60.9,45.7,36.9,42.3,38.3,34.5,93,77,45,29.71,29.59,10,1,13,0.00
2013-4-4,50.7,47.2,44.1,43.9,42.4,40.8,94,83,71,29.75,29.68,8,2,11,0.51
2013-4-5,52.2,45.6,42.2,45.5,42.6,40.0,95,90,74,29.70,29.49,9,2,11,0.63
2013-4-6,59.4,48.2,38.9,46.3,42.8,37.0,96,83,56,29.87,29.68,8,1,11,0.01
2013-4-7,58.0,49.8,45.4,45.8,43.4,40.3,93,79,54,29.88,29.78,11,2,13,0.51
2013-4-8,49.2,44.3,40.9,41.8,38.3,35.1,92,80,64,29.86,29.74,11,1,15,0.34
2013-4-9,49.5,42.4,36.5,41.5,39.2,34.5,94,89,72,29.83,29.74,7,0,10,0.00
2013-4-10,63.5,46.9,32.0,43.3,37.7,30.3,96,74,41,29.92,29.81,9,1,12,0.03
2013-4-11,51.9,45.8,40.5,49.5,43.1,37.5,96,90,82,29.97,29.84,6,0,7,0.73
2013-4-12,63.4,51.3,47.1,51.9,47.8,46.0,96,89,59,29.86,29.74,10,1,12,2.07
2013-4-13,70.8,53.7,37.6,48.6,41.2,31.2,97,69,24,30.20,29.86,9,1,13,0.01
2013-4-14,73.8,52.9,39.4,48.5,42.5,37.0,97,71,36,30.35,30.20,8,1,11,0.00
2013-4-15,75.4,56.2,43.2,51.6,46.8,41.0,94,74,39,30.27,30.06,10,1,14,0.00
2013-4-16,74.9,60.1,53.8,53.5,51.0,49.4,87,74,44,30.17,30.08,8,1,10,0.00
2013-4-17,77.7,62.3,53.7,53.3,51.8,49.2,89,71,40,30.22,30.10,8,0,11,0.00
2013-4-18,79.5,60.5,48.8,56.0,51.5,46.6,93,75,41,30.15,29.96,8,0,11,0.00
2013-4-19,74.5,57.6,47.8,56.6,51.8,43.1,94,82,45,29.99,29.76,17,2,30,2.37
2013-4-20,48.6,45.8,43.6,43.9,42.4,40.8,92,88,77,30.07,29.82,14,5,26,4.74
2013-4-21,61.8,49.4,45.4,51.5,45.6,43.0,94,87,58,30.07,29.93,16,2,20,0.28
2013-4-22,61.9,50.7,44.5,50.6,46.2,42.8,99,86,63,30.03,29.88,11,1,16,0.00
2013-4-23,69.0,55.7,47.9,50.5,47.9,45.2,93,77,46,30.30,30.03,12,2,19,0.00
2013-4-24,71.1,57.8,50.5,53.4,49.2,45.1,95,76,41,30.40,30.29,10,1,13,0.15
2013-4-25,76.5,56.4,43.8,51.6,46.4,40.3,95,74,30,30.34,30.16,8,1,12,0.00
2013-4-26,61.7,55.2,51.6,55.7,51.4,47.7,94,87,77,30.16,29.83,8,0,12,0.14
2013-4-27,58.0,55.1,53.4,54.2,53.1,52.2,96,93,85,29.83,29.58,16,6,23,3.42
2013-4-28,62.5,55.5,52.8,55.8,53.1,50.9,96,92,75,29.99,29.66,11,3,15,1.78
2013-4-29,54.1,52.3,51.0,53.0,51.0,49.6,97,96,94,30.15,29.96,8,2,10,5.43
2013-4-30,61.2,55.2,51.9,58.5,53.8,50.8,97,95,89,30.11,30.07,7,1,10,0.40
2013-5-1,68.3,59.3,54.3,58.4,55.4,52.7,97,87,68,30.12,30.00,11,2,15,0.63
2013-5-2,76.6,60.6,53.1,59.4,54.7,51.9,100,83,49,30.03,29.86,8,1,12,0.01
2013-5-3,70.0,56.0,48.4,59.1,51.3,46.8,96,85,59,29.92,29.84,13,1,21,0.02
2013-5-4,74.6,57.0,46.0,54.8,49.0,44.1,96,77,43,30.00,29.92,9,1,14,0.00
2013-5-5,75.5,60.4,48.0,55.5,49.8,43.0,94,70,38,30.06,29.95,20,2,25,0.34
2013-5-6,70.3,58.1,54.5,57.6,54.1,-99.9,96,88,59,30.05,29.91,7,0,9,0.93
2013-5-7,73.8,59.3,49.2,57.7,52.1,47.6,96,79,51,29.94,29.85,11,1,16,0.00
2013-5-8,76.8,59.1,48.3,56.5,51.6,46.6,96,79,43,29.96,29.87,9,0,12,0.00
2013-5-9,76.2,61.6,53.8,58.3,54.1,51.4,94,78,44,29.98,29.86,11,1,18,0.00
2013-5-10,68.0,59.2,55.4,59.6,55.8,53.4,96,89,69,29.88,29.82,12,2,24,1.17
2013-5-11,77.0,62.6,51.1,55.2,48.7,33.5,99,67,27,29.85,29.72,10,1,15,0.03
2013-5-12,77.1,66.4,56.0,39.8,34.0,26.3,44,31,22,29.93,29.75,11,2,16,0.00
2013-5-13,73.0,60.9,46.4,48.3,37.9,-99.9,80,45,28,30.02,29.89,9,1,13,0.00
2013-5-14,71.7,56.3,44.2,54.6,47.5,41.7,93,75,43,29.95,29.77,12,1,16,0.86
2013-5-15,59.4,55.1,53.0,54.4,51.9,47.9,94,89,76,29.80,29.68,9,2,15,0.55
2013-5-16,53.1,50.7,49.4,50.5,48.7,47.7,96,93,83,29.68,29.45,11,3,18,3.87
2013-5-17,66.3,55.1,50.6,56.1,49.8,43.7,97,84,48,29.75,29.44,10,2,16,1.20
2013-5-18,63.7,52.2,48.2,53.0,47.5,45.3,93,85,55,29.96,29.75,14,2,25,1.49
2013-5-19,63.8,51.3,46.1,53.7,47.6,44.7,100,88,61,29.91,29.76,9,3,15,3.97
2013-5-20,64.9,52.5,49.0,52.2,48.8,46.9,94,88,58,29.99,29.91,11,1,14,1.01
2013-5-21,62.1,51.2,45.7,52.5,48.1,43.2,96,90,66,29.99,29.84,8,1,14,0.31
2013-5-22,67.4,52.9,40.9,50.6,42.9,35.3,100,74,34,29.87,29.60,8,1,11,0.01
2013-5-23,72.9,60.8,54.1,49.3,39.0,31.8,81,46,30,29.65,29.46,19,3,30,0.01
2013-5-24,63.8,54.9,46.0,47.9,33.5,26.2,87,46,26,29.73,29.49,12,2,22,0.00
2013-5-25,55.3,47.6,41.9,42.8,40.9,36.9,92,79,53,29.80,29.68,11,1,14,0.00
2013-5-26,70.6,52.1,38.5,42.8,36.9,28.0,95,63,22,29.87,29.78,11,1,15,0.00
2013-5-27,70.3,53.0,39.0,49.8,42.6,36.6,95,71,39,29.85,29.76,10,1,15,0.00
2013-5-28,63.1,55.3,51.8,53.4,50.1,47.3,93,83,64,29.83,29.60,7,1,11,0.40
2013-5-29,66.4,53.2,46.6,50.7,46.4,42.1,95,80,42,29.64,29.49,16,3,26,4.01
2013-5-30,70.0,55.0,47.9,48.6,45.1,36.0,93,73,30,29.63,29.53,12,1,16,0.16
2013-5-31,71.8,53.6,43.4,48.6,43.8,40.3,96,74,35,29.60,29.49,9,0,15,0.00
2013-6-1,75.8,59.8,46.6,56.6,50.6,43.8,96,73,48,29.75,29.53,9,1,12,0.00
2013-6-2,82.0,63.8,47.9,55.0,44.8,34.4,92,58,25,29.86,29.71,13,2,26,0.00
2013-6-3,76.2,64.2,55.3,53.9,45.9,34.4,82,54,29,29.94,29.85,11,1,21,0.00
2013-6-4,78.5,61.3,49.1,56.6,51.1,46.9,93,72,39,29.94,29.83,8,1,11,0.00
2013-6-5,78.5,64.1,58.0,58.7,55.5,52.9,89,76,43,29.99,29.88,13,1,20,0.00
2013-6-6,77.7,65.2,59.2,58.9,57.1,54.8,92,76,49,30.04,29.93,9,1,14,0.00
2013-6-7,80.2,68.3,58.6,61.9,58.0,55.2,89,71,46,30.04,29.93,8,1,13,0.00
2013-6-8,80.6,65.3,55.6,61.5,56.8,53.3,93,76,43,29.98,29.83,9,0,12,0.00
2013-6-9,67.1,60.4,55.3,60.5,56.8,53.6,95,88,73,29.87,29.75,8,0,13,3.03
2013-6-10,72.9,59.9,53.5,59.3,54.4,49.1,96,84,52,29.84,29.73,8,0,11,0.68
2013-6-11,83.3,64.9,50.7,58.4,53.0,47.1,94,70,30,29.93,29.80,8,1,13,0.00
2013-6-12,85.8,66.5,52.5,57.8,52.6,44.7,88,66,26,30.02,29.93,7,1,10,0.00
2013-6-13,83.7,66.4,54.6,63.1,56.2,52.0,92,73,40,30.09,29.93,8,1,11,0.00
2013-6-14,83.8,70.1,62.9,67.4,61.0,57.6,90,75,42,29.96,29.89,7,0,10,0.00
2013-6-15,86.3,72.6,65.1,66.5,63.3,55.1,90,74,40,29.96,29.88,8,0,10,0.00
2013-6-16,85.5,71.0,62.0,69.4,64.5,60.0,94,82,53,29.99,29.91,7,0,10,0.00
2013-6-17,90.0,74.0,64.4,72.0,66.4,62.4,94,79,49,30.01,29.91,9,0,11,0.00
2013-6-18,93.4,76.7,66.1,73.3,67.4,63.6,93,76,42,29.98,29.88,6,0,9,0.00
2013-6-19,89.8,74.7,67.4,69.4,66.2,63.3,93,77,48,29.98,29.90,12,2,22,0.00
2013-6-20,83.5,70.9,65.6,67.0,63.5,60.4,90,78,51,29.93,29.88,11,1,20,0.06
2013-6-21,80.4,69.1,61.2,63.6,60.8,57.5,92,76,52,29.94,29.89,10,1,14,0.00
2013-6-22,82.8,69.5,62.8,60.5,58.5,54.5,89,71,40,29.96,29.87,11,2,19,0.00
2013-6-23,79.9,66.0,58.0,66.4,59.9,55.7,94,82,55,29.93,29.77,10,1,16,1.82
2013-6-24,81.4,70.0,59.9,59.0,43.3,35.8,92,42,23,29.97,29.78,10,2,16,0.62
2013-6-25,82.3,68.9,61.3,42.5,37.7,32.8,44,32,22,30.04,29.92,9,1,19,0.00
2013-6-26,82.0,68.6,61.2,46.7,38.0,33.7,46,33,20,30.12,30.01,9,2,15,0.00
2013-6-27,68.4,57.9,50.4,54.5,47.0,35.3,86,69,33,30.16,30.02,8,1,12,0.02
2013-6-28,69.7,59.1,51.9,54.0,51.3,47.8,93,77,49,30.11,30.01,9,1,14,0.00
2013-6-29,72.9,57.9,49.2,55.9,50.7,47.0,94,79,41,30.10,29.98,5,0,7,0.00
2013-6-30,83.3,66.0,51.7,57.9,48.9,42.0,89,58,31,30.05,29.95,8,1,11,0.00
2013-7-1,83.9,66.0,53.0,60.9,54.7,50.1,91,70,37,30.06,29.97,7,0,10,0.00
2013-7-2,83.8,68.4,58.0,61.2,57.0,52.6,91,70,39,30.04,29.92,9,1,13,0.00
2013-7-3,75.4,67.8,60.9,61.2,57.8,54.9,89,71,50,29.96,29.89,8,1,14,0.00
2013-7-4,86.4,67.5,54.8,64.2,57.7,-99.9,94,74,38,30.08,29.93,8,1,11,0.00
2013-7-5,89.2,73.0,60.2,66.9,60.9,-99.9,91,70,37,30.14,30.04,7,0,10,0.00
2013-7-6,89.4,74.6,65.3,68.2,63.2,59.4,89,71,41,30.15,30.04,8,0,11,0.00
2013-7-7,87.5,74.3,64.9,65.2,63.1,59.3,91,70,43,30.17,30.08,15,1,23,0.01
2013-7-8,87.0,71.4,65.9,68.0,64.3,61.9,93,80,45,30.19,30.08,11,1,15,0.74
2013-7-9,87.5,70.6,62.1,67.2,62.3,59.7,93,78,43,30.14,29.94,8,1,11,0.02
2013-7-10,86.6,71.8,64.1,65.9,62.0,58.2,89,73,45,29.97,29.78,15,1,22,0.11
2013-7-11,87.6,73.7,62.8,67.8,63.0,59.3,92,72,42,29.85,29.74,8,1,11,0.03
2013-7-12,84.7,73.1,65.6,67.6,63.8,60.6,91,74,51,29.95,29.81,10,2,15,0.00
2013-7-13,85.3,72.4,65.4,69.5,65.4,62.7,93,80,52,29.98,29.87,7,1,10,0.00
2013-7-14,85.6,72.2,61.9,66.3,61.8,58.6,92,72,42,30.03,29.95,9,1,13,0.00
2013-7-15,87.9,72.5,61.2,69.1,63.1,58.9,93,75,44,30.03,29.92,7,0,11,0.00
2013-7-16,87.5,72.9,62.9,68.5,63.9,60.2,92,76,46,30.09,29.99,8,1,11,0.00
2013-7-17,78.6,71.9,66.7,67.9,64.5,58.2,92,78,54,30.13,30.00,6,0,9,0.03
2013-7-18,80.8,68.8,63.7,65.0,61.8,58.6,93,80,48,30.09,30.02,11,1,19,0.00
2013-7-19,86.6,70.7,58.9,65.2,60.0,54.3,93,72,36,30.05,29.92,8,1,14,0.00
2013-7-20,88.8,73.8,62.0,67.8,60.5,56.8,87,65,37,29.98,29.89,7,1,11,0.00
2013-7-21,89.5,73.5,62.2,69.8,63.2,59.2,92,73,42,30.02,29.93,10,1,13,0.00
2013-7-22,89.7,74.8,64.3,70.7,65.9,57.8,92,76,47,30.01,29.86,18,1,25,1.24
2013-7-23,89.5,73.3,63.3,72.8,63.6,59.1,93,73,48,29.98,29.81,10,1,19,2.75
2013-7-24,88.0,74.6,65.3,70.1,62.9,58.9,86,68,44,29.93,29.84,11,1,18,0.03
2013-7-25,90.2,74.9,64.2,71.3,66.3,62.0,93,77,45,29.97,29.89,7,0,10,0.00
2013-7-26,92.1,75.8,65.9,74.2,67.9,63.5,92,79,47,29.98,29.86,9,0,14,0.00
2013-7-27,93.2,76.5,66.2,73.9,68.5,63.8,93,78,48,29.91,29.81,7,0,11,0.00
2013-7-28,93.5,77.5,70.5,71.3,67.1,61.1,91,74,36,29.92,29.85,8,1,12,0.00
2013-7-29,72.6,66.5,58.0,68.4,62.3,55.4,95,87,71,30.01,29.82,16,1,26,2.20
2013-7-30,88.4,67.1,53.8,64.1,56.2,50.2,95,73,29,30.05,29.96,7,1,11,0.00
2013-7-31,89.2,70.5,57.1,68.8,60.1,54.8,94,73,35,30.07,29.95,7,0,9,0.00
2013-8-1,91.9,76.6,62.5,70.1,64.4,60.1,94,70,39,30.07,29.96,8,0,10,0.00
2013-8-2,94.6,73.5,61.9,73.6,64.2,59.9,94,77,34,30.05,29.96,6,0,9,0.00
2013-8-3,92.8,74.3,63.0,70.9,63.2,58.3,92,71,40,30.01,29.96,8,1,15,0.00
2013-8-4,94.8,75.8,62.6,74.0,63.8,59.4,90,70,36,30.04,29.93,5,0,10,0.00
2013-8-5,91.8,79.3,66.4,74.0,67.7,64.0,92,71,41,29.99,29.89,8,1,12,0.00
2013-8-6,92.7,78.6,68.8,74.1,67.6,62.4,90,71,45,29.96,29.84,8,1,14,0.04
2013-8-7,85.8,75.5,69.1,71.5,67.2,64.2,93,77,55,29.88,29.78,10,1,15,0.37
2013-8-8,73.8,69.1,66.0,67.8,64.2,59.6,95,85,67,30.00,29.81,9,1,16,0.94
2013-8-9,88.0,73.3,62.3,66.0,58.9,41.2,91,64,28,30.06,29.81,9,2,21,0.35
2013-8-10,88.7,76.1,64.7,64.3,49.4,38.4,82,41,27,29.95,29.88,8,1,12,0.00
2013-8-11,86.0,71.4,56.8,66.1,59.4,53.9,91,69,43,30.01,29.89,7,1,9,0.00
2013-8-12,87.4,70.6,58.8,67.3,61.5,56.8,94,76,44,30.00,29.88,7,0,9,0.00
2013-8-13,88.3,73.1,60.7,68.8,63.2,58.4,94,74,45,29.91,29.81,8,0,10,0.00
2013-8-14,73.9,67.6,62.6,65.3,62.2,59.4,92,83,72,30.08,29.85,13,2,19,0.00
2013-8-15,81.6,68.9,58.5,62.9,59.1,55.2,93,74,42,30.14,30.04,7,0,11,0.00
2013-8-16,82.4,68.0,55.9,65.0,58.8,53.7,94,75,45,30.11,29.98,7,0,9,0.00
2013-8-17,86.0,70.3,58.7,66.8,61.2,56.7,94,76,46,30.04,29.93,8,0,9,0.00
2013-8-18,88.2,72.0,59.3,69.1,62.8,57.3,94,76,46,30.02,29.92,8,0,11,0.00
2013-8-19,82.7,71.6,64.6,66.4,63.3,56.4,92,76,55,29.98,29.88,9,0,14,0.00
2013-8-20,87.0,75.1,65.1,59.1,48.0,40.7,76,41,22,30.12,29.93,10,2,16,0.00
2013-8-21,83.3,67.3,54.2,59.9,54.9,47.4,93,69,29,30.13,30.01,6,0,9,0.00
2013-8-22,83.7,67.5,53.6,62.5,56.6,51.3,93,72,41,30.08,29.92,7,1,10,0.00
2013-8-23,84.4,69.6,59.5,64.8,60.2,56.6,92,75,45,29.99,29.85,7,0,10,0.00
2013-8-24,80.1,67.8,62.4,65.2,62.0,57.7,94,83,56,29.95,29.77,16,1,27,0.41
2013-8-25,78.1,66.2,59.1,63.4,59.2,54.4,95,80,48,29.78,29.67,9,1,13,0.00
2013-8-26,73.7,63.3,57.8,59.6,57.1,54.1,94,81,55,29.86,29.71,9,1,16,0.26
2013-8-27,78.2,64.6,57.8,60.2,57.2,54.1,93,79,46,29.87,29.77,8,1,14,0.00
2013-8-28,82.2,65.2,51.7,61.5,54.9,49.7,95,73,37,29.97,29.81,6,0,9,0.00
2013-8-29,78.6,65.7,58.7,63.9,59.3,56.4,93,81,51,30.08,29.97,6,0,13,0.71
2013-8-30,79.8,67.7,60.7,63.5,59.5,56.3,93,78,46,30.09,30.00,7,0,10,0.00
2013-8-31,82.2,67.9,57.5,64.5,59.7,55.5,95,78,47,30.09,29.99,7,1,10,0.00
2013-9-1,84.9,70.3,60.8,64.0,60.5,58.2,94,74,41,30.08,29.98,8,1,12,0.00
2013-9-2,82.8,68.0,56.2,63.3,57.0,50.7,92,72,34,30.18,30.07,8,0,11,0.00
2013-9-3,84.4,67.2,53.0,66.5,57.8,51.0,94,75,43,30.20,30.10,7,1,9,0.02
2013-9-4,85.9,69.2,57.8,66.7,60.9,55.8,94,78,45,30.22,30.06,6,0,11,0.00
2013-9-5,85.3,69.9,59.5,67.3,62.3,57.6,95,79,49,30.11,29.89,7,0,9,0.00
2013-9-6,85.3,70.1,60.8,66.9,62.2,58.6,94,78,45,29.93,29.84,9,1,12,0.01
2013-9-7,85.1,70.8,60.9,67.9,62.4,58.6,93,77,44,30.02,29.93,7,0,8,0.00
2013-9-8,76.1,69.7,64.7,68.1,64.4,60.9,92,83,69,30.04,29.92,10,1,14,0.21
2013-9-9,83.8,69.0,58.6,61.9,55.8,47.1,91,67,29,29.96,29.88,8,1,14,0.00
2013-9-10,73.9,61.0,53.1,61.7,55.8,-99.9,93,84,62,29.96,29.79,10,1,15,0.06
2013-9-11,74.7,64.1,55.9,54.9,46.9,37.5,85,55,34,29.92,29.81,9,1,13,0.02
2013-9-12,76.1,60.1,46.4,55.1,49.3,41.3,96,71,34,29.96,29.85,6,0,10,0.00
2013-9-13,78.7,65.2,54.0,53.1,43.4,38.6,85,48,26,30.05,29.96,8,1,12,0.00
2013-9-14,77.2,60.0,45.8,58.6,49.8,43.4,94,73,39,30.06,29.94,7,0,9,0.00
2013-9-15,60.6,58.9,54.7,58.6,56.9,53.3,95,93,87,29.98,29.80,6,0,10,2.70
2013-9-16,66.7,57.5,50.4,58.9,54.5,49.3,97,90,74,29.82,29.54,6,0,8,0.05
2013-9-17,74.2,60.9,46.6,55.5,42.9,31.6,94,59,22,29.70,29.47,10,1,15,0.00
2013-9-18,71.6,54.5,41.6,55.7,46.1,39.2,93,76,38,29.70,29.59,5,0,7,0.00
2013-9-19,79.9,61.4,45.8,61.8,51.4,44.0,98,74,31,29.85,29.64,6,0,9,0.00
2013-9-20,75.0,61.7,52.4,60.1,54.2,50.0,92,78,52,30.02,29.85,6,0,9,0.00
2013-9-21,76.7,60.7,48.9,61.6,54.1,47.0,99,81,51,30.21,30.02,6,0,9,0.03
2013-9-22,74.6,60.5,50.8,61.5,54.9,49.1,95,83,56,30.29,30.18,5,0,7,0.01
2013-9-23,77.9,60.8,49.4,63.7,54.9,47.7,96,83,50,30.20,30.02,6,0,8,0.02
2013-9-24,77.0,62.3,51.1,63.3,56.2,49.4,95,82,56,30.03,29.90,7,0,9,0.01
2013-9-25,73.0,62.3,56.9,62.6,58.3,55.2,95,87,68,29.95,29.88,8,0,9,0.00
2013-9-26,75.8,63.1,53.6,63.4,58.0,51.9,96,85,59,29.95,29.87,7,0,10,0.00
2013-9-27,74.5,63.6,56.6,64.3,59.6,54.9,96,88,64,29.96,29.87,4,0,6,0.01
2013-9-28,74.5,65.9,63.0,65.1,61.9,-99.9,94,89,68,29.91,29.81,5,0,6,0.00
2013-9-29,65.2,60.7,58.7,63.1,59.0,-99.9,96,94,92,29.82,29.63,0,0,0,6.22
2013-9-30,58.9,57.8,56.4,57.8,56.7,55.1,97,96,92,29.65,29.58,0,0,1,0.35
2013-10-8,65.4,57.4,52.0,57.7,54.4,50.6,97,90,69,30.23,30.15,1,0,14,0.03
2013-10-9,68.2,57.8,49.9,58.7,53.9,48.5,97,87,66,30.17,29.97,5,0,7,0.00
2013-10-10,58.1,54.5,42.1,57.4,52.2,35.8,98,92,67,29.97,29.52,12,2,33,3.99
2013-10-11,63.5,50.7,42.5,46.2,40.1,35.2,92,69,35,29.96,29.64,17,2,27,0.14
2013-10-12,57.2,47.0,42.0,49.3,43.6,40.4,96,88,64,30.13,29.91,9,2,16,2.88
2013-10-13,52.5,48.7,45.9,48.1,45.4,43.1,92,89,84,30.23,30.12,8,1,14,0.03
2013-10-14,57.9,50.9,45.9,51.8,48.1,44.3,96,90,79,30.23,30.12,4,0,8,0.00
2013-10-15,63.7,50.5,43.9,52.9,47.5,42.4,100,90,60,30.14,29.86,5,0,6,0.00
2013-10-16,75.0,53.9,43.0,56.6,47.6,41.4,100,82,36,29.89,29.77,6,1,7,0.06
2013-10-17,74.1,53.0,39.9,57.2,46.7,38.5,97,82,47,30.03,29.88,5,0,6,0.03
2013-10-18,69.0,51.4,38.5,55.9,46.1,36.9,100,84,50,30.11,30.01,6,0,9,0.03
2013-10-19,64.6,50.1,41.7,55.1,46.9,40.1,97,89,63,30.28,30.11,6,0,7,0.03
2013-10-20,56.6,53.2,49.5,54.9,51.5,-99.9,96,95,92,30.28,30.18,5,0,8,0.05
2013-10-21,60.9,55.4,51.3,55.6,52.9,-99.9,97,92,80,30.25,30.18,4,0,5,0.02
2013-10-22,58.0,56.3,55.4,57.2,55.0,-99.9,97,96,95,30.20,30.10,4,0,6,1.12
2013-10-23,59.1,58.1,56.7,58.4,57.3,55.9,98,97,97,30.11,29.97,12,1,16,5.18
2013-10-24,61.2,58.9,56.9,60.4,58.2,56.3,98,98,96,30.18,30.02,4,0,6,0.80
2013-10-25,69.2,59.0,53.2,62.0,57.0,51.8,98,93,72,30.22,30.16,5,0,6,0.00
2013-10-26,71.9,57.7,51.4,61.0,54.6,50.3,98,90,61,30.22,30.15,5,0,7,0.05
2013-10-27,59.8,57.5,55.4,58.9,56.6,54.0,97,97,95,30.22,30.04,5,0,8,0.30
2013-10-28,67.9,58.9,54.5,62.3,57.0,53.1,98,94,78,30.07,29.95,4,0,6,0.02
2013-10-29,65.1,59.4,55.2,61.1,57.9,54.1,98,95,85,29.96,29.88,4,0,8,0.48
2013-10-30,62.8,57.7,54.5,58.3,55.2,52.8,97,92,72,30.18,29.94,6,0,8,0.55
2013-10-31,59.7,52.7,43.8,55.7,51.3,-99.9,100,95,86,30.31,30.18,6,0,8,4.15
2013-11-1,60.3,50.2,41.3,55.3,48.2,40.2,98,93,80,30.24,30.10,3,0,5,0.06
2013-11-2,59.2,53.4,48.9,53.8,51.0,47.5,96,92,76,30.11,29.95,5,0,7,0.00
2013-11-3,64.7,54.5,50.0,56.0,48.2,31.8,100,82,39,29.95,29.71,8,1,15,0.17
2013-11-4,53.0,47.3,40.8,47.6,42.1,33.3,93,83,48,29.77,29.45,5,0,9,0.02
2013-11-5,67.1,49.9,40.1,49.7,44.7,38.8,100,84,43,29.55,29.42,5,0,7,0.02
2013-11-6,67.4,53.8,44.0,51.1,46.8,41.8,94,79,50,29.89,29.54,8,1,12,0.04
2013-11-7,67.0,49.7,38.3,53.5,45.6,36.7,97,87,61,30.06,29.89,5,0,7,0.02
2013-11-8,55.7,53.2,50.9,53.4,51.6,49.2,96,94,91,30.05,29.91,4,0,5,0.29
2013-11-9,65.7,54.4,45.8,56.3,51.4,44.4,97,90,63,29.91,29.76,5,0,8,0.31
2013-11-10,53.7,46.4,37.8,47.4,38.0,20.8,96,77,28,29.80,29.61,17,2,39,0.09
2013-11-11,63.0,55.5,41.7,28.9,19.3,14.3,60,25,16,30.12,29.76,18,7,37,0.00
2013-11-12,64.8,44.4,32.0,37.4,31.9,26.7,87,65,29,30.21,30.09,5,0,7,0.00
2013-11-13,62.5,45.2,31.8,46.4,38.1,29.7,95,79,44,30.18,30.10,6,0,9,0.00
2013-11-14,52.0,48.6,44.6,49.3,46.0,38.8,96,91,80,30.18,29.84,8,0,13,0.47
2013-11-15,45.1,43.0,41.0,43.5,40.3,37.9,94,90,78,30.27,29.82,11,2,23,1.47
2013-11-16,60.7,47.7,39.0,48.9,43.7,-99.9,96,87,61,30.28,30.21,7,1,8,0.00
2013-11-17,55.7,47.7,40.4,49.4,43.7,38.6,97,87,65,30.27,30.15,6,0,8,0.02
2013-11-18,49.1,47.5,46.1,47.7,46.1,44.7,96,95,93,30.16,29.88,5,0,8,0.46
2013-11-19,49.7,48.5,47.3,48.6,46.7,45.8,96,94,88,29.88,29.54,7,1,11,1.05
2013-11-20,49.7,46.8,43.2,48.0,45.5,41.7,97,95,93,29.60,29.52,6,0,11,1.18
2013-11-21,43.2,40.1,37.3,41.9,38.7,35.7,100,95,92,29.57,29.33,12,2,16,0.84
2013-11-22,40.3,36.8,33.1,37.5,35.0,31.8,96,93,74,29.65,29.43,8,2,15,1.01
2013-11-23,46.9,39.9,34.9,39.3,34.8,30.0,94,82,63,29.67,29.51,8,1,11,0.00
2013-11-24,54.4,41.9,32.5,42.8,35.1,26.0,97,80,34,29.85,29.67,13,1,20,0.00
2013-11-25,57.3,48.8,40.4,27.9,17.2,5.9,58,29,17,30.11,29.81,15,4,23,0.00
2013-11-26,51.8,38.3,27.3,26.5,19.5,8.3,84,50,25,30.26,30.10,7,1,13,0.00
2013-11-27,48.9,36.0,25.3,20.8,14.1,6.7,74,43,22,30.40,30.23,11,1,22,0.00
2013-11-28,47.5,31.3,20.9,25.6,21.3,17.4,88,69,36,30.48,30.38,5,0,8,0.00
2013-11-29,51.1,32.4,22.1,30.6,24.7,19.4,92,76,37,30.39,30.05,6,0,7,0.00
2013-11-30,36.9,33.5,28.4,33.8,29.8,26.0,94,86,77,30.24,29.94,5,0,7,0.00
2013-12-1,52.4,32.6,24.8,38.0,27.4,23.1,96,83,44,30.26,30.13,6,0,7,0.03
2013-12-2,56.9,33.0,23.9,32.9,25.6,21.4,93,77,35,30.49,30.20,5,0,7,0.00
2013-12-3,53.5,32.1,22.3,34.6,25.6,20.1,100,79,41,30.50,30.35,4,0,5,0.01
2013-12-4,56.9,32.1,20.7,35.9,25.2,18.5,100,79,35,30.39,30.20,3,0,5,0.00
2013-12-5,58.2,35.3,25.2,38.9,29.0,22.9,100,80,43,30.22,30.06,4,0,6,0.02
2013-12-6,64.6,40.5,26.6,39.0,28.9,19.8,94,70,23,30.06,29.86,13,2,25,0.01
2013-12-7,60.1,38.5,27.5,39.4,29.9,24.7,93,75,32,30.32,30.04,7,1,9,0.00
2013-12-8,53.5,33.1,23.9,36.8,27.8,21.5,95,82,51,30.45,30.31,5,0,6,0.00
2013-12-9,47.7,31.9,24.4,38.8,28.3,22.2,96,87,61,30.46,30.39,4,0,5,0.01
2013-12-10,55.2,33.9,24.0,37.1,28.3,21.8,99,82,48,30.67,30.44,4,0,5,0.01
2013-12-11,57.5,33.1,23.7,37.5,27.8,21.7,96,83,43,30.67,30.52,4,0,5,0.02
2013-12-12,52.2,32.5,23.7,37.9,27.8,21.9,96,84,53,30.56,30.41,2,0,4,0.02
2013-12-13,56.5,33.4,23.5,38.5,27.9,21.6,96,82,44,30.42,30.24,2,0,4,0.02
2013-12-14,57.9,33.9,24.1,38.2,27.9,21.9,100,81,41,30.41,30.27,5,0,7,0.00
2013-12-15,53.2,33.1,24.3,37.6,27.4,21.8,93,81,47,30.60,30.41,5,0,6,0.01
2013-12-16,52.8,31.9,22.4,36.5,26.3,20.2,94,82,50,30.64,30.55,4,0,6,0.00
2013-12-17,56.1,32.7,22.0,36.5,26.4,19.8,95,80,37,30.60,30.43,3,0,4,0.01
2013-12-18,52.2,32.1,25.1,35.5,27.0,22.7,94,83,46,30.43,30.26,3,0,5,0.00
2013-12-19,38.7,35.5,28.1,37.4,33.6,24.8,95,93,86,30.27,30.16,5,0,10,1.31
2013-12-20,40.3,37.9,35.8,39.3,36.8,34.5,96,96,95,30.55,30.21,4,0,5,1.09
2013-12-21,42.8,39.5,34.8,42.0,38.7,33.8,97,97,96,30.62,30.53,2,0,5,0.05
2013-12-22,45.1,43.1,41.4,44.3,42.3,40.6,97,97,97,30.56,30.38,2,0,4,0.08
2013-12-23,49.1,44.8,42.4,47.3,43.6,41.6,98,96,89,30.38,30.23,4,0,6,0.26
2013-12-24,45.0,44.1,43.4,43.9,43.2,42.4,97,97,96,30.23,30.05,4,0,7,0.75
2013-12-25,43.5,41.5,39.7,42.7,40.7,38.9,97,97,97,29.93,29.33,11,3,18,11.61
2013-12-26,50.5,44.9,39.8,42.2,36.7,29.9,97,76,46,29.53,29.18,11,3,24,7.84
2013-12-27,58.2,45.5,32.4,38.0,32.2,28.6,100,61,43,29.97,29.53,8,2,14,0.00
2013-12-28,42.4,38.9,33.1,40.7,37.3,31.0,100,94,91,30.02,29.92,8,1,13,1.46
2013-12-29,52.3,39.6,30.3,44.5,37.0,28.8,100,91,68,30.21,29.93,7,1,13,0.28
2013-12-30,51.9,37.5,28.8,35.4,30.0,26.2,95,76,51,30.38,30.21,6,1,9,0.00
2013-12-31,50.1,33.2,25.3,33.5,27.5,23.6,95,82,47,30.30,30.15,5,0,8,0.02
2014-1-1,47.7,30.2,23.3,33.8,25.7,21.3,95,85,49,30.17,30.10,4,0,8,0.01
2014-1-2,35.5,33.2,29.1,34.9,32.0,27.0,99,95,89,30.14,30.03,2,0,6,0.21